User: anonymous   Login
Location: Unspecified
(0.0000°N, 0.0000°E)
Time: 20:01:48
(UTC+00:00)
Language:

Nadezhda 3 - Orbit

View from above orbital plane
View from above orbital plane
View from above satellite
View from above satellite

Ground track
Ground track

The orbit data is extracted from the following two-line orbital elements,

1 21152U 91019A   17144.82730951 +.00000036 +00000-0 +21992-4 0  9999
2 21152 082.9288 238.6189 0040361 298.6402 181.1295 13.74219179313460
Epoch (UTC): 24 May 2017 19:51:19
Eccentricity: 0.0040361
inclination: 82.9288°
perigee height: 955 km
apogee height: 1014 km
right ascension of ascending node: 238.6189°
argument of perigee: 298.6402°
revolutions per day: 13.74219179
mean anomaly at epoch: 181.1295°
orbit number at epoch: 31346

The dashed part of the orbit path shows where the satellite is in the earth's shadow,  

DLR